Regional Weather Roundup
Issued by NWS

Home | Current Version | Previous Version | Text Only | Print | Product List | Glossary Off
Versions: 1 2 3 4 5 6 7 8 9 10 11 12 13 14 15 16 17 18 19 20 21 22 23 24 25 26 27 28 29 30 31 32 33 34 35 36 37 38 39 40 41 42 43 44 45 46 47 48 49 50

000
ASUS43 KLMK 241510
RWRKY
KENTUCKY REGIONAL WEATHER ROUNDUP
NATIONAL WEATHER SERVICE LOUISVILLE KY
1000 AM EST MON NOV 24 2014

NOTE "FAIR" INDICATES FEW OR NO CLOUDS BELOW 12,000 FEET
WITH NO SIGNIFICANT WEATHER AND/OR OBSTRUCTIONS TO VISIBILITY.

KYZ001>023-026-027-061>063-070>075-241600-
WESTERN AND SOUTH CENTRAL KENTUCKY

CITY           SKY/WX    TMP DP  RH WIND       PRES   REMARKS
PADUCAH        CLOUDY    45  35  68 W14       29.70R
HENDERSON      CLOUDY    45  34  65 W18G24    29.65R
OWENSBORO      CLOUDY    45  40  82 W23G32    29.64R
HOPKINSVILLE   CLOUDY    49  42  77 W25G36    29.69R HAZE
BOWLING GREEN  LGT RAIN  56  47  71 SW13G29   29.62R
GLASGOW        CLOUDY    55  49  78 W18G31    29.61R
$$

KYZ024-025-028>034-038-045-046-053-241600-
NORTH CENTRAL KENTUCKY

CITY           SKY/WX    TMP DP  RH WIND       PRES   REMARKS
LOUISVILLE/SDF LGT RAIN  53  47  79 W26G40    29.51R
LOUISVILLE/LOU CLOUDY    54  48  80 W17G31    29.51R
FORT KNOX      CLOUDY    52  46  82 W20G39    29.54R
$$

KYZ035>037-039>044-047>052-055>060-089>105-241600-
NORTHEAST KENTUCKY

CITY           SKY/WX    TMP DP  RH WIND       PRES   REMARKS
LEXINGTON      PTSUNNY   62  47  57 SW25G53   29.48R
COVINGTON      CLOUDY    62  47  57 SW29G41   29.36R
FRANKFORT      CLOUDY    61  48  62 SW31G47   29.45R
$$

KYZ054-064>069-076>088-106>120-241600-
SOUTHEAST KENTUCKY

CITY           SKY/WX    TMP DP  RH WIND       PRES   REMARKS
JACKSON        PTSUNNY   64  46  52 SW10G25   29.56R
LONDON         PTSUNNY   65  49  56 SW26G43   29.59R
SOMERSET       CLOUDY    63  46  55 SW23G40   29.60R
MIDDLESBORO    CLOUDY    64  53  67 SW12G23   29.66R
MONTICELLO     PTSUNNY   63  51  64 SW18G25   29.63R
$$



USA.gov is the U.S. government's official web portal to all federal, state and local government web resources and services.